Regional Weather Roundup
Issued by NWS

Home | Current Version | Previous Version | Graphics & Text | Print | Product List | Glossary On
Versions: 1 2 3 4 5 6 7 8 9 10 11 12 13 14 15 16 17 18 19 20 21 22 23 24 25 26 27 28 29 30 31 32 33 34 35 36 37 38 39 40 41 42 43 44 45 46 47 48 49 50
862
ASUS44 KLIX 160805
RWRLA
LOUISIANA WEATHER ROUNDUP
NATIONAL WEATHER SERVICE NEW ORLEANS LA
300 AM CDT WED APR 16 2014

NOTE: "FAIR" INDICATES FEW OR NO CLOUDS BELOW 12,000 FEET WITH NO
      SIGNIFICANT WEATHER AND/OR OBSTRUCTIONS TO VISIBILITY.
      SKY/WX - SKY CONDITION AND SIGNIFICANT WEATHER.
      TMP - AIR TEMPERATURE.    DP   - DEWPOINT TEMPERATURE.
      RH  - RELATIVE HUMIDITY.  PRES - PRESSURE.
      HX  - HEAT INDEX.         WCI  - WIND CHILL INDEX.

*  THESE STATIONS ARE NOT NWS OR FAA STATIONS AND ARE NOT UNDER
   NWS QUALITY CONTROL.

LAZ040-048-061>063-065-066-069-160900-
SOUTHEAST LOUISIANA

CITY           SKY/WX    TMP DP  RH WIND       PRES   REMARKS
N.O. AUDUBON     N/A     50  35  56 MISG        N/A
N.O. INTL ARPT CLEAR     49  35  58 NE14      30.17S
N.O. LAKEFRONT CLEAR     50  37  61 NE21      30.18S
N.O. DOWNTOWN* FAIR      50  30  46 N7        30.17S
SLIDELL        CLEAR     42  34  73 N3        30.18R
BATON ROUGE    CLEAR     42  32  67 NE6       30.19S
BOOTHVILLE     CLEAR     54  37  52 NE12G21   30.15R
BELLE CHASSE   CLEAR     47  34  60 NE6       30.16S
BOGALUSA*        N/A     38  35  87 CALM      30.20R
GALLIANO*      SUNNY     48  39  69 N7        30.17R
NEW ROADS*     FAIR      42  32  67 NE9       30.19F
GONZALES*      FAIR      43  34  69 NE5       30.18S
HAMMOND*       CLEAR     39  34  81 CALM      30.21R
HOUMA*           N/A     45  36  70 N6        30.15F
PORT FOURCHON* SUNNY     52  41  66 N13       30.17S

$$

LAZ041-044-053-054-160900-
SOUTHWEST LOUISIANA

CITY           SKY/WX    TMP DP  RH WIND       PRES   REMARKS
LAKE CHARLES   CLEAR     43  36  76 E6        30.18F
LAFAYETTE      CLEAR     43  35  73 CALM      30.19F
PATTERSON      CLEAR     46  32  57 NE10      30.20F
SALT POINT       N/A     46  37  71 CALM      30.17F
NEW IBERIA     CLEAR     45  34  65 NE8       30.19F
CHENAULT AIRPK CLEAR     43  37  77 CALM      30.19F

$$

LAZ027-028-160900-
CENTRAL LOUISIANA

CITY           SKY/WX    TMP DP  RH WIND       PRES   REMARKS
FORT POLK      CLEAR     41  35  79 E5        30.17F
ALEXANDRIA INT CLEAR     42  35  76 E6        30.18F
ALEXANDRIA     CLEAR     38  35  89 CALM      30.19F

$$

LAZ001-002-160900-
NORTHWEST LOUISIANA

CITY           SKY/WX    TMP DP  RH WIND       PRES   REMARKS
SHREVEPORT     CLEAR     42  35  76 SE3       30.17F
BARKSDALE AFB  CLEAR     39  35  85 SE5       30.17F
DTN SHREVEPORT CLEAR     42  34  73 SE6       30.17F

$$

LAZ014-016-160900-
NORTHEAST LOUISIANA

CITY           SKY/WX    TMP DP  RH WIND       PRES   REMARKS
MONROE         CLEAR     40  34  79 E5        30.21F
TALLULAH       CLEAR     44  34  67 NE7       30.22S

$$




USA.gov is the U.S. government's official web portal to all federal, state and local government web resources and services.